{"data":{"norad_id":69524,"epoch":"2026-09-19T13:40:17.444640Z","epoch_age_seconds":105880,"freshness":"FRESH","line1":"1 69524U 26133S   26262.56964635  .00013723  00000+0  41651-3 0  9998","line2":"2 69524  53.1571 233.8870 0001360  92.3136 267.8022 15.34402986 16629","mean_motion":15.34402986,"eccentricity":0.000136,"inclination_deg":53.1571,"raan_deg":233.887,"arg_perigee_deg":92.3136,"mean_anomaly_deg":267.8022,"bstar":0.00041651,"rev_number":1662,"period_min":93.84757545043,"perigee_km":461.76401213456,"apogee_km":463.62471826589,"semimajor_km":6840.8313652002,"source":"CELESTRAK","updated_at":"2026-09-20T09:00:44.238617Z"}}